Time,TemperatureF,DewpointF,PressureIn,WindDirection,WindDirectionDegrees,WindSpeedMPH,WindSpeedGustMPH,Humidity,HourlyPrecipIn,Conditions,Clouds,dailyrainin,SoftwareType,DateUTC
2013-05-31 00:03:00,55.6,45.2,16.51,SW,232,0.0,0.0,68,0.00,,---,0.00,VWS V13.01,2013-05-31 07:03:00,
2013-05-31 00:08:00,55.4,45.4,16.51,SW,232,0.0,0.0,69,0.00,,---,0.00,VWS V13.01,2013-05-31 07:08:00,
2013-05-31 00:13:00,55.3,45.3,16.51,SW,232,0.0,0.0,69,0.00,,---,0.00,VWS V13.01,2013-05-31 07:13:00,
2013-05-31 00:18:00,55.1,45.5,16.51,SW,232,0.0,0.0,70,0.00,,---,0.00,VWS V13.01,2013-05-31 07:18:00,
2013-05-31 00:23:00,54.9,44.9,16.51,SW,232,0.0,1.0,69,0.00,,---,0.00,VWS V13.01,2013-05-31 07:23:00,
2013-05-31 00:28:00,54.7,45.5,16.51,SW,232,0.0,1.0,71,0.00,,---,0.00,VWS V13.01,2013-05-31 07:28:00,
2013-05-31 00:33:00,54.6,45.4,16.51,SW,232,0.0,1.0,71,0.00,,---,0.00,VWS V13.01,2013-05-31 07:33:00,
2013-05-31 00:38:00,54.7,45.5,16.51,WSW,240,0.0,2.0,71,0.00,,---,0.00,VWS V13.01,2013-05-31 07:38:00,
2013-05-31 00:43:00,54.7,45.5,16.51,WSW,240,0.0,2.0,71,0.00,,---,0.00,VWS V13.01,2013-05-31 07:43:00,
2013-05-31 00:48:00,54.6,45.4,28.86,WSW,240,0.0,2.0,71,0.00,,---,0.00,VWS V13.01,2013-05-31 07:48:00,
2013-05-31 00:53:00,54.5,45.3,28.86,WSW,240,0.0,2.0,71,0.00,,---,0.00,VWS V13.01,2013-05-31 07:53:00,
2013-05-31 00:58:00,54.3,45.1,28.86,WSW,240,0.0,2.0,71,0.00,,---,0.00,VWS V13.01,2013-05-31 07:58:00,
2013-05-31 01:06:00,54.0,44.8,31.12,WSW,240,0.0,0.0,71,0.00,,---,0.00,VWS V13.01,2013-05-31 08:06:00,
2013-05-31 01:11:00,54.0,45.2,31.12,WSW,244,0.0,1.0,72,0.00,,---,0.00,VWS V13.01,2013-05-31 08:11:00,
2013-05-31 01:16:00,54.0,45.2,24.27,WSW,244,0.0,1.0,72,0.00,,---,0.00,VWS V13.01,2013-05-31 08:16:00,
2013-05-31 01:21:00,53.9,45.1,24.27,WSW,244,0.0,1.0,72,0.00,,---,0.00,VWS V13.01,2013-05-31 08:21:00,
2013-05-31 01:26:00,53.8,45.0,17.52,WSW,244,0.0,1.0,72,0.00,,---,0.00,VWS V13.01,2013-05-31 08:26:00,
2013-05-31 01:31:00,53.6,44.8,17.52,WSW,244,0.0,1.0,72,0.00,,---,0.00,VWS V13.01,2013-05-31 08:31:00,
2013-05-31 01:36:00,53.4,45.0,19.85,WSW,244,0.0,1.0,73,0.00,,---,0.00,VWS V13.01,2013-05-31 08:36:00,
2013-05-31 01:41:00,53.3,44.9,17.59,WSW,244,0.0,1.0,73,0.00,,---,0.00,VWS V13.01,2013-05-31 08:41:00,
2013-05-31 01:46:00,53.3,44.9,17.59,WSW,244,0.0,1.0,73,0.00,,---,0.00,VWS V13.01,2013-05-31 08:46:00,
2013-05-31 01:51:00,53.3,44.9,17.59,WSW,244,0.0,1.0,73,0.00,,---,0.00,VWS V13.01,2013-05-31 08:51:00,
2013-05-31 01:56:00,53.3,45.2,17.59,WSW,247,0.0,1.0,74,0.00,,---,0.00,VWS V13.01,2013-05-31 08:56:00,
2013-05-31 02:01:00,53.2,45.1,17.59,WSW,248,0.0,1.0,74,0.00,,---,0.00,VWS V13.01,2013-05-31 09:01:00,
2013-05-31 02:06:00,53.1,45.4,17.59,WSW,248,0.0,0.0,75,0.00,,---,0.00,VWS V13.01,2013-05-31 09:06:00,
2013-05-31 02:11:00,53.0,45.3,17.59,WSW,248,0.0,0.0,75,0.00,,---,0.00,VWS V13.01,2013-05-31 09:11:00,
2013-05-31 02:16:00,53.0,45.0,28.86,WSW,248,0.0,0.0,74,0.00,,---,0.00,VWS V13.01,2013-05-31 09:16:00,
2013-05-31 02:21:00,52.7,44.7,28.86,WSW,248,0.0,0.0,74,0.00,,---,0.00,VWS V13.01,2013-05-31 09:21:00,
2013-05-31 02:26:00,52.5,44.5,28.86,WSW,248,0.0,0.0,74,0.00,,---,0.00,VWS V13.01,2013-05-31 09:26:00,
2013-05-31 02:31:00,52.2,44.5,28.86,WSW,248,0.0,0.0,75,0.00,,---,0.00,VWS V13.01,2013-05-31 09:31:00,
2013-05-31 02:36:00,52.0,44.3,28.86,WSW,248,0.0,0.0,75,0.00,,---,0.00,VWS V13.01,2013-05-31 09:36:00,
2013-05-31 02:41:00,51.9,44.6,28.86,WSW,248,0.0,0.0,76,0.00,,---,0.00,VWS V13.01,2013-05-31 09:41:00,
2013-05-31 02:46:00,51.7,44.4,28.86,WSW,248,0.0,0.0,76,0.00,,---,0.00,VWS V13.01,2013-05-31 09:46:00,
2013-05-31 02:51:00,51.6,44.3,28.86,WSW,248,0.0,0.0,76,0.00,,---,0.00,VWS V13.01,2013-05-31 09:51:00,
2013-05-31 02:56:00,51.5,44.5,28.86,WSW,248,0.0,0.0,77,0.00,,---,0.00,VWS V13.01,2013-05-31 09:56:00,
2013-05-31 03:01:00,51.5,44.5,28.86,WSW,248,0.0,0.0,77,0.00,,---,0.00,VWS V13.01,2013-05-31 10:01:00,
2013-05-31 03:06:00,51.4,44.4,28.86,WSW,248,0.0,0.0,77,0.00,,---,0.00,VWS V13.01,2013-05-31 10:06:00,
2013-05-31 03:11:00,51.4,44.4,28.86,WSW,248,0.0,0.0,77,0.00,,---,0.00,VWS V13.01,2013-05-31 10:11:00,
2013-05-31 03:16:00,51.4,44.4,28.86,WSW,248,0.0,0.0,77,0.00,,---,0.00,VWS V13.01,2013-05-31 10:16:00,
2013-05-31 03:21:00,51.3,44.3,28.86,WSW,248,0.0,0.0,77,0.00,,---,0.00,VWS V13.01,2013-05-31 10:21:00,
2013-05-31 03:26:00,51.2,44.2,28.86,WSW,248,0.0,0.0,77,0.00,,---,0.00,VWS V13.01,2013-05-31 10:26:00,
2013-05-31 03:31:00,51.2,44.2,28.86,WSW,248,0.0,0.0,77,0.00,,---,0.00,VWS V13.01,2013-05-31 10:31:00,
2013-05-31 03:36:00,51.0,44.0,28.86,WSW,248,0.0,0.0,77,0.00,,---,0.00,VWS V13.01,2013-05-31 10:36:00,
2013-05-31 03:41:00,50.9,44.0,28.86,WSW,248,0.0,0.0,77,0.00,,---,0.00,VWS V13.01,2013-05-31 10:41:00,
2013-05-31 03:46:00,50.7,44.1,28.86,WSW,248,0.0,0.0,78,0.00,,---,0.00,VWS V13.01,2013-05-31 10:46:00,
2013-05-31 03:51:00,50.7,44.1,28.86,WSW,248,0.0,0.0,78,0.00,,---,0.00,VWS V13.01,2013-05-31 10:51:00,
2013-05-31 03:56:00,50.6,44.0,28.86,WSW,248,0.0,0.0,78,0.00,,---,0.00,VWS V13.01,2013-05-31 10:56:00,
2013-05-31 04:01:00,50.5,43.9,28.86,WSW,248,0.0,0.0,78,0.00,,---,0.00,VWS V13.01,2013-05-31 11:01:00,
2013-05-31 04:06:00,50.5,44.2,28.50,WSW,248,0.0,0.0,79,0.00,,---,0.00,VWS V13.01,2013-05-31 11:06:00,
2013-05-31 04:11:00,50.4,44.1,28.50,WSW,248,0.0,0.0,79,0.00,,---,0.00,VWS V13.01,2013-05-31 11:11:00,
2013-05-31 04:16:00,50.4,44.1,28.50,WSW,248,0.0,0.0,79,0.00,,---,0.00,VWS V13.01,2013-05-31 11:16:00,
2013-05-31 04:21:00,50.3,44.0,28.50,WSW,248,0.0,0.0,79,0.00,,---,0.00,VWS V13.01,2013-05-31 11:21:00,
2013-05-31 04:26:00,50.3,44.0,28.50,WSW,248,0.0,0.0,79,0.00,,---,0.00,VWS V13.01,2013-05-31 11:26:00,
2013-05-31 04:31:00,50.1,43.8,28.50,WSW,248,0.0,0.0,79,0.00,,---,0.00,VWS V13.01,2013-05-31 11:31:00,
2013-05-31 04:36:00,50.0,43.8,28.50,WSW,248,0.0,0.0,79,0.00,,---,0.00,VWS V13.01,2013-05-31 11:36:00,
2013-05-31 04:41:00,49.9,44.0,28.50,WSW,248,0.0,0.0,80,0.00,,---,0.00,VWS V13.01,2013-05-31 11:41:00,
2013-05-31 04:46:00,49.8,43.9,28.50,WSW,248,0.0,0.0,80,0.00,,---,0.00,VWS V13.01,2013-05-31 11:46:00,
2013-05-31 04:51:00,49.7,43.8,28.50,WSW,248,0.0,0.0,80,0.00,,---,0.00,VWS V13.01,2013-05-31 11:51:00,
2013-05-31 04:56:00,49.6,43.7,28.50,WSW,248,0.0,0.0,80,0.00,,---,0.00,VWS V13.01,2013-05-31 11:56:00,
2013-05-31 05:01:00,49.5,43.6,28.50,WSW,248,0.0,0.0,80,0.00,,---,0.00,VWS V13.01,2013-05-31 12:01:00,
2013-05-31 05:06:00,49.4,43.5,28.50,WSW,248,0.0,0.0,80,0.00,,---,0.00,VWS V13.01,2013-05-31 12:06:00,
2013-05-31 05:11:00,49.4,43.5,32.28,WSW,248,0.0,0.0,80,0.00,,---,0.00,VWS V13.01,2013-05-31 12:11:00,
2013-05-31 05:16:00,49.4,43.8,28.15,WSW,248,0.0,0.0,81,0.00,,---,0.00,VWS V13.01,2013-05-31 12:16:00,
2013-05-31 05:21:00,49.3,43.7,23.29,WSW,248,0.0,0.0,81,0.00,,---,0.00,VWS V13.01,2013-05-31 12:21:00,
2013-05-31 05:26:00,49.2,43.6,23.29,WSW,248,0.0,0.0,81,0.00,,---,0.00,VWS V13.01,2013-05-31 12:26:00,
2013-05-31 05:31:00,49.1,43.5,23.29,WSW,248,0.0,0.0,81,0.00,,---,0.00,VWS V13.01,2013-05-31 12:31:00,
2013-05-31 05:36:00,49.1,43.5,23.29,WSW,248,0.0,0.0,81,0.00,,---,0.00,VWS V13.01,2013-05-31 12:36:00,
2013-05-31 05:41:00,49.1,43.5,23.29,WSW,248,0.0,0.0,81,0.00,,---,0.00,VWS V13.01,2013-05-31 12:41:00,
2013-05-31 05:46:00,49.1,43.5,23.29,WSW,248,0.0,0.0,81,0.00,,---,0.00,VWS V13.01,2013-05-31 12:46:00,
2013-05-31 05:51:00,49.1,43.5,23.29,WSW,248,0.0,0.0,81,0.00,,---,0.00,VWS V13.01,2013-05-31 12:51:00,
2013-05-31 05:56:00,49.0,43.4,23.29,WSW,248,0.0,0.0,81,0.00,,---,0.00,VWS V13.01,2013-05-31 12:56:00,
2013-05-31 06:01:00,49.0,43.4,23.29,WSW,248,0.0,0.0,81,0.00,,---,0.00,VWS V13.01,2013-05-31 13:01:00,
2013-05-31 06:06:00,49.1,43.8,23.29,WSW,248,0.0,0.0,82,0.00,,---,0.00,VWS V13.01,2013-05-31 13:06:00,
2013-05-31 06:11:00,49.1,43.8,27.27,WSW,248,0.0,0.0,82,0.00,,---,0.00,VWS V13.01,2013-05-31 13:11:00,
2013-05-31 06:16:00,49.2,43.6,27.27,WSW,248,0.0,0.0,81,0.00,,---,0.00,VWS V13.01,2013-05-31 13:16:00,
2013-05-31 06:21:00,49.1,43.8,27.27,WSW,248,0.0,0.0,82,0.00,,---,0.00,VWS V13.01,2013-05-31 13:21:00,
2013-05-31 06:26:00,49.2,44.0,27.27,WSW,248,0.0,0.0,82,0.00,,---,0.00,VWS V13.01,2013-05-31 13:26:00,
2013-05-31 06:31:00,49.3,44.0,18.14,WSW,248,0.0,0.0,82,0.00,,---,0.00,VWS V13.01,2013-05-31 13:31:00,
2013-05-31 06:36:00,49.6,44.3,18.14,WSW,248,0.0,0.0,82,0.00,,---,0.00,VWS V13.01,2013-05-31 13:36:00,
2013-05-31 06:41:00,50.2,44.9,18.14,WSW,248,0.0,0.0,82,0.00,,---,0.00,VWS V13.01,2013-05-31 13:41:00,
2013-05-31 06:46:00,50.9,45.6,18.14,WSW,248,0.0,0.0,82,0.00,,---,0.00,VWS V13.01,2013-05-31 13:46:00,
2013-05-31 06:51:00,51.7,46.4,18.14,WSW,248,0.0,0.0,82,0.00,,---,0.00,VWS V13.01,2013-05-31 13:51:00,
2013-05-31 06:56:00,52.5,46.8,18.14,WSW,248,0.0,0.0,81,0.00,,---,0.00,VWS V13.01,2013-05-31 13:56:00,
2013-05-31 07:01:00,53.4,47.4,18.14,WSW,248,0.0,0.0,80,0.00,,---,0.00,VWS V13.01,2013-05-31 14:01:00,
2013-05-31 07:06:00,54.4,48.0,18.14,WSW,248,0.0,0.0,79,0.00,,---,0.00,VWS V13.01,2013-05-31 14:06:00,
2013-05-31 07:11:00,55.0,47.9,28.50,WSW,248,0.0,0.0,77,0.00,,---,0.00,VWS V13.01,2013-05-31 14:11:00,
2013-05-31 07:16:00,55.7,48.3,28.50,WSW,248,0.0,0.0,76,0.00,,---,0.00,VWS V13.01,2013-05-31 14:16:00,
2013-05-31 07:21:00,56.4,48.2,28.50,WSW,248,0.0,0.0,74,0.00,,---,0.00,VWS V13.01,2013-05-31 14:21:00,
2013-05-31 07:26:00,57.1,48.9,28.50,WSW,248,0.0,1.0,74,0.00,,---,0.00,VWS V13.01,2013-05-31 14:26:00,
2013-05-31 07:31:00,57.7,48.8,28.50,WSW,248,0.0,1.0,72,0.00,,---,0.00,VWS V13.01,2013-05-31 14:31:00,
2013-05-31 07:36:00,58.1,48.8,28.50,WSW,248,0.0,1.0,71,0.00,,---,0.00,VWS V13.01,2013-05-31 14:36:00,
2013-05-31 07:41:00,58.7,49.0,28.50,WSW,248,0.0,1.0,70,0.00,,---,0.00,VWS V13.01,2013-05-31 14:41:00,
2013-05-31 07:46:00,59.4,49.2,28.50,WSW,246,0.0,1.0,69,0.00,,---,0.00,VWS V13.01,2013-05-31 14:46:00,
2013-05-31 07:51:00,60.0,49.4,28.50,WSW,247,0.0,1.0,68,0.00,,---,0.00,VWS V13.01,2013-05-31 14:51:00,
2013-05-31 07:56:00,60.6,50.0,28.50,WSW,248,0.0,1.0,68,0.00,,---,0.00,VWS V13.01,2013-05-31 14:56:00,
2013-05-31 08:01:00,61.2,49.8,17.59,WSW,248,0.0,1.0,66,0.00,,---,0.00,VWS V13.01,2013-05-31 15:01:00,
2013-05-31 08:06:00,61.5,49.6,17.59,WSW,250,0.0,1.0,65,0.00,,---,0.00,VWS V13.01,2013-05-31 15:06:00,
2013-05-31 08:11:00,61.7,50.2,17.59,WSW,250,0.0,1.0,66,0.00,,---,0.00,VWS V13.01,2013-05-31 15:11:00,
2013-05-31 08:15:00,62.0,50.1,28.50,WSW,245,1.0,3.0,65,0.00,,---,0.00,VWS V13.01,2013-05-31 15:15:00,
2013-05-31 08:20:00,62.2,49.9,28.50,WSW,245,0.0,3.0,64,0.00,,---,0.00,VWS V13.01,2013-05-31 15:20:00,
2013-05-31 08:25:00,62.5,50.2,28.50,WSW,245,0.0,3.0,64,0.00,,---,0.00,VWS V13.01,2013-05-31 15:25:00,
2013-05-31 08:30:00,62.9,50.5,28.50,WSW,245,0.0,3.0,64,0.00,,---,0.00,VWS V13.01,2013-05-31 15:30:00,
2013-05-31 08:35:00,63.3,50.9,28.50,WSW,240,2.0,3.0,64,0.00,,---,0.00,VWS V13.01,2013-05-31 15:35:00,
2013-05-31 08:40:00,63.8,51.0,26.61,WNW,288,0.0,3.0,63,0.00,,---,0.00,VWS V13.01,2013-05-31 15:40:00,
2013-05-31 08:45:00,64.0,51.2,31.12,WNW,288,0.0,3.0,63,0.00,,---,0.00,VWS V13.01,2013-05-31 15:45:00,
2013-05-31 08:50:00,64.4,50.7,31.12,WNW,296,2.0,4.0,61,0.00,,---,0.00,VWS V13.01,2013-05-31 15:50:00,
2013-05-31 08:55:00,64.3,50.1,31.12,WNW,288,0.0,4.0,60,0.00,,---,0.00,VWS V13.01,2013-05-31 15:55:00,
2013-05-31 09:00:00,64.7,51.0,31.12,WSW,246,1.0,6.0,61,0.00,,---,0.00,VWS V13.01,2013-05-31 16:00:00,
2013-05-31 09:05:00,65.2,51.0,31.12,WSW,245,0.0,0.0,60,0.00,,---,0.00,VWS V13.01,2013-05-31 16:05:00,
2013-05-31 09:10:00,65.7,50.5,31.12,WNW,286,1.0,2.0,58,0.00,,---,0.00,VWS V13.01,2013-05-31 16:10:00,
2013-05-31 09:15:00,65.9,51.2,31.12,WSW,238,0.0,3.0,59,0.00,,---,0.00,VWS V13.01,2013-05-31 16:15:00,
2013-05-31 09:20:00,66.6,51.8,31.12,SSE,156,0.0,3.0,59,0.00,,---,0.00,VWS V13.01,2013-05-31 16:20:00,
2013-05-31 09:25:00,67.1,51.4,31.12,WSW,254,0.0,4.0,57,0.00,,---,0.00,VWS V13.01,2013-05-31 16:25:00,
2013-05-31 09:30:00,67.2,51.0,31.12,WNW,302,0.0,4.0,56,0.00,,---,0.00,VWS V13.01,2013-05-31 16:30:00,
2013-05-31 09:35:00,67.3,51.6,31.12,WNW,301,0.0,4.0,57,0.00,,---,0.00,VWS V13.01,2013-05-31 16:35:00,
2013-05-31 09:40:00,68.0,51.2,31.12,WNW,291,1.0,4.0,55,0.00,,---,0.00,VWS V13.01,2013-05-31 16:40:00,
2013-05-31 09:45:00,68.2,51.4,31.12,SW,226,1.0,5.0,55,0.00,,---,0.00,VWS V13.01,2013-05-31 16:45:00,
2013-05-31 09:50:00,68.7,51.4,31.12,NW,304,0.0,5.0,54,0.00,,---,0.00,VWS V13.01,2013-05-31 16:50:00,
2013-05-31 09:55:00,69.3,52.0,31.12,WSW,242,2.0,5.0,54,0.00,,---,0.00,VWS V13.01,2013-05-31 16:55:00,
2013-05-31 10:00:00,70.1,52.2,31.12,WSW,242,2.0,6.0,53,0.00,,---,0.00,VWS V13.01,2013-05-31 17:00:00,
2013-05-31 10:05:00,70.8,51.8,31.12,WSW,237,0.0,5.0,51,0.00,,---,0.00,VWS V13.01,2013-05-31 17:05:00,
2013-05-31 10:10:00,71.0,52.5,16.48,SW,222,2.0,5.0,52,0.00,,---,0.00,VWS V13.01,2013-05-31 17:10:00,
2013-05-31 10:15:00,71.6,52.5,16.48,SW,234,3.0,7.0,51,0.00,,---,0.00,VWS V13.01,2013-05-31 17:15:00,
2013-05-31 10:20:00,71.6,52.0,16.48,ESE,121,2.0,7.0,50,0.00,,---,0.00,VWS V13.01,2013-05-31 17:20:00,
2013-05-31 10:25:00,72.1,53.0,16.48,SSW,209,0.0,7.0,51,0.00,,---,0.00,VWS V13.01,2013-05-31 17:25:00,
2013-05-31 10:30:00,72.7,53.0,16.48,WSW,238,0.0,7.0,50,0.00,,---,0.00,VWS V13.01,2013-05-31 17:30:00,
2013-05-31 10:35:00,73.5,53.2,16.48,SW,232,3.0,7.0,49,0.00,,---,0.00,VWS V13.01,2013-05-31 17:35:00,
2013-05-31 10:40:00,74.2,53.3,16.48,WSW,250,1.0,7.0,48,0.00,,---,0.00,VWS V13.01,2013-05-31 17:40:00,
2013-05-31 10:45:00,74.6,53.6,16.48,SW,225,0.0,7.0,48,0.00,,---,0.00,VWS V13.01,2013-05-31 17:45:00,
2013-05-31 10:50:00,75.3,53.1,16.48,SW,226,0.0,7.0,46,0.00,,---,0.00,VWS V13.01,2013-05-31 17:50:00,
2013-05-31 10:55:00,75.5,52.7,16.48,WSW,241,0.0,7.0,45,0.00,,---,0.00,VWS V13.01,2013-05-31 17:55:00,
2013-05-31 11:00:00,75.6,53.4,16.48,West,263,1.0,7.0,46,0.00,,---,0.00,VWS V13.01,2013-05-31 18:00:00,
2013-05-31 11:05:00,75.6,52.8,16.48,NW,306,0.0,2.0,45,0.00,,---,0.00,VWS V13.01,2013-05-31 18:05:00,
2013-05-31 11:10:00,75.8,53.0,16.48,West,278,2.0,3.0,45,0.00,,---,0.00,VWS V13.01,2013-05-31 18:10:00,
2013-05-31 11:15:00,76.0,53.2,16.48,WNW,299,3.0,4.0,45,0.00,,---,0.00,VWS V13.01,2013-05-31 18:15:00,
2013-05-31 11:20:00,76.2,52.7,16.48,NNW,343,0.0,6.0,44,0.00,,---,0.00,VWS V13.01,2013-05-31 18:20:00,
2013-05-31 11:25:00,76.4,54.1,16.48,WSW,237,4.0,6.0,46,0.00,,---,0.00,VWS V13.01,2013-05-31 18:25:00,
2013-05-31 11:30:00,77.0,53.4,16.48,WSW,247,3.0,6.0,44,0.00,,---,0.00,VWS V13.01,2013-05-31 18:30:00,
2013-05-31 11:35:00,77.5,54.5,16.48,SW,223,0.0,6.0,45,0.00,,---,0.00,VWS V13.01,2013-05-31 18:35:00,
2013-05-31 11:40:00,78.2,53.9,16.48,SW,225,0.0,6.0,43,0.00,,---,0.00,VWS V13.01,2013-05-31 18:40:00,
2013-05-31 11:45:00,78.8,55.1,16.48,SW,225,1.0,6.0,44,0.00,,---,0.00,VWS V13.01,2013-05-31 18:45:00,
2013-05-31 11:50:00,79.1,53.4,16.48,WNW,298,0.0,6.0,41,0.00,,---,0.00,VWS V13.01,2013-05-31 18:50:00,
2013-05-31 11:55:00,78.7,53.7,16.48,SSE,152,0.0,6.0,42,0.00,,---,0.00,VWS V13.01,2013-05-31 18:55:00,
2013-05-31 12:00:00,79.2,53.5,16.48,West,263,0.0,6.0,41,0.00,,---,0.00,VWS V13.01,2013-05-31 19:00:00,
2013-05-31 12:05:00,79.4,53.0,16.48,SW,236,0.0,4.0,40,0.00,,---,0.00,VWS V13.01,2013-05-31 19:05:00,
2013-05-31 12:10:00,79.7,53.9,16.48,WSW,254,0.0,4.0,41,0.00,,---,0.00,VWS V13.01,2013-05-31 19:10:00,
2013-05-31 12:15:00,80.7,54.8,16.48,SW,231,1.0,5.0,41,0.00,,---,0.00,VWS V13.01,2013-05-31 19:15:00,
2013-05-31 12:20:00,81.9,53.8,16.48,SSW,207,0.0,5.0,38,0.00,,---,0.00,VWS V13.01,2013-05-31 19:20:00,
2013-05-31 12:25:00,82.9,54.0,16.48,SSW,210,1.0,5.0,37,0.00,,---,0.00,VWS V13.01,2013-05-31 19:25:00,
2013-05-31 12:30:00,83.5,53.0,16.48,SW,232,0.0,5.0,35,0.00,,---,0.00,VWS V13.01,2013-05-31 19:30:00,
2013-05-31 12:35:00,83.7,54.7,16.48,SW,225,5.0,5.0,37,0.00,,---,0.00,VWS V13.01,2013-05-31 19:35:00,
2013-05-31 12:40:00,84.5,55.4,16.48,SSE,154,0.0,8.0,37,0.00,,---,0.00,VWS V13.01,2013-05-31 19:40:00,
2013-05-31 12:45:00,85.1,54.4,16.48,SW,222,3.0,8.0,35,0.00,,---,0.00,VWS V13.01,2013-05-31 19:45:00,
2013-05-31 12:50:00,85.2,56.0,16.48,SW,232,7.0,8.0,37,0.00,,---,0.00,VWS V13.01,2013-05-31 19:50:00,
2013-05-31 12:55:00,84.9,54.2,16.48,WNW,298,1.0,8.0,35,0.00,,---,0.00,VWS V13.01,2013-05-31 19:55:00,
2013-05-31 13:00:00,84.7,54.8,16.48,SW,214,3.0,9.0,36,0.00,,---,0.00,VWS V13.01,2013-05-31 20:00:00,
2013-05-31 13:05:00,85.0,55.1,16.48,WSW,246,0.0,10.0,36,0.00,,---,0.00,VWS V13.01,2013-05-31 20:05:00,
2013-05-31 13:10:00,85.2,54.5,16.48,SW,232,4.0,10.0,35,0.00,,---,0.00,VWS V13.01,2013-05-31 20:10:00,
2013-05-31 13:15:00,85.4,54.7,16.48,SW,234,2.0,10.0,35,0.00,,---,0.00,VWS V13.01,2013-05-31 20:15:00,
2013-05-31 13:20:00,85.6,55.6,16.48,SW,226,3.0,10.0,36,0.00,,---,0.00,VWS V13.01,2013-05-31 20:20:00,
2013-05-31 13:25:00,85.8,54.2,16.48,WSW,238,5.0,10.0,34,0.00,,---,0.00,VWS V13.01,2013-05-31 20:25:00,
2013-05-31 13:30:00,86.3,53.8,16.48,West,259,1.0,10.0,33,0.00,,---,0.00,VWS V13.01,2013-05-31 20:30:00,
2013-05-31 13:35:00,86.8,55.1,16.48,South,190,0.0,10.0,34,0.00,,---,0.00,VWS V13.01,2013-05-31 20:35:00,
2013-05-31 13:40:00,87.4,54.0,16.48,SSW,211,0.0,10.0,32,0.00,,---,0.00,VWS V13.01,2013-05-31 20:40:00,
2013-05-31 13:45:00,88.0,51.8,16.48,SW,233,0.0,10.0,29,0.00,,---,0.00,VWS V13.01,2013-05-31 20:45:00,
2013-05-31 13:50:00,88.2,52.9,16.48,SSW,193,1.0,10.0,30,0.00,,---,0.00,VWS V13.01,2013-05-31 20:50:00,
2013-05-31 13:55:00,87.9,51.7,16.48,WSW,250,1.0,10.0,29,0.00,,---,0.00,VWS V13.01,2013-05-31 20:55:00,
2013-05-31 14:00:00,87.3,52.1,16.48,SSW,210,1.0,10.0,30,0.00,,---,0.00,VWS V13.01,2013-05-31 21:00:00,
2013-05-31 14:05:00,87.0,52.7,16.48,NW,314,1.0,11.0,31,0.00,,---,0.00,VWS V13.01,2013-05-31 21:05:00,
2013-05-31 14:10:00,86.4,49.5,16.48,NNW,336,4.0,11.0,28,0.00,,---,0.00,VWS V13.01,2013-05-31 21:10:00,
2013-05-31 14:15:00,86.5,49.6,16.48,WNW,283,0.0,11.0,28,0.00,,---,0.00,VWS V13.01,2013-05-31 21:15:00,
2013-05-31 14:20:00,87.1,46.0,16.48,WNW,298,6.0,11.0,24,0.00,,---,0.00,VWS V13.01,2013-05-31 21:20:00,
2013-05-31 14:25:00,87.2,44.9,16.48,NNE,17,0.0,11.0,23,0.00,,---,0.00,VWS V13.01,2013-05-31 21:25:00,
2013-05-31 14:30:00,87.3,45.0,16.48,West,279,6.0,11.0,23,0.00,,---,0.00,VWS V13.01,2013-05-31 21:30:00,
2013-05-31 14:35:00,87.0,45.9,16.48,NW,323,3.0,12.0,24,0.00,,---,0.00,VWS V13.01,2013-05-31 21:35:00,
2013-05-31 14:40:00,87.0,45.9,16.48,NW,315,5.0,12.0,24,0.00,,---,0.00,VWS V13.01,2013-05-31 21:40:00,
2013-05-31 14:45:00,87.2,46.0,16.48,WNW,298,2.0,12.0,24,0.00,,---,0.00,VWS V13.01,2013-05-31 21:45:00,
2013-05-31 14:50:00,87.3,43.8,16.48,NNW,343,2.0,12.0,22,0.00,,---,0.00,VWS V13.01,2013-05-31 21:50:00,
2013-05-31 14:55:00,87.7,44.2,16.48,NNW,340,0.0,12.0,22,0.00,,---,0.00,VWS V13.01,2013-05-31 21:55:00,
2013-05-31 15:00:00,87.7,43.0,16.48,WNW,297,7.0,12.0,21,0.00,,---,0.00,VWS V13.01,2013-05-31 22:00:00,
2013-05-31 15:05:00,87.9,44.3,16.48,NE,41,0.0,6.0,22,0.00,,---,0.00,VWS V13.01,2013-05-31 22:05:00,
2013-05-31 15:10:00,88.2,44.6,16.48,WNW,302,3.0,9.0,22,0.00,,---,0.00,VWS V13.01,2013-05-31 22:10:00,
2013-05-31 15:15:00,88.1,44.5,16.48,NW,305,4.0,10.0,22,0.00,,---,0.00,VWS V13.01,2013-05-31 22:15:00,
2013-05-31 15:20:00,88.4,44.8,16.48,NNW,336,7.0,10.0,22,0.00,,---,0.00,VWS V13.01,2013-05-31 22:20:00,
2013-05-31 15:25:00,88.3,45.8,16.48,NNE,14,5.0,10.0,23,0.00,,---,0.00,VWS V13.01,2013-05-31 22:25:00,
2013-05-31 15:30:00,88.2,44.6,16.48,SW,230,0.0,10.0,22,0.00,,---,0.00,VWS V13.01,2013-05-31 22:30:00,
2013-05-31 15:35:00,88.3,45.8,16.48,NW,304,3.0,11.0,23,0.00,,---,0.00,VWS V13.01,2013-05-31 22:35:00,
2013-05-31 15:40:00,88.0,45.6,16.48,NE,41,1.0,11.0,23,0.00,,---,0.00,VWS V13.01,2013-05-31 22:40:00,
2013-05-31 15:45:00,88.0,45.6,16.48,NW,315,0.0,11.0,23,0.00,,---,0.00,VWS V13.01,2013-05-31 22:45:00,
2013-05-31 15:50:00,87.8,47.6,16.48,West,276,0.0,12.0,25,0.00,,---,0.00,VWS V13.01,2013-05-31 22:50:00,
2013-05-31 15:55:00,87.8,47.6,16.48,WNW,286,10.0,12.0,25,0.00,,---,0.00,VWS V13.01,2013-05-31 22:55:00,
2013-05-31 16:00:00,87.5,47.4,16.48,NW,324,3.0,17.0,25,0.00,,---,0.00,VWS V13.01,2013-05-31 23:00:00,
2013-05-31 16:05:00,87.1,46.0,16.48,NW,309,7.0,9.0,24,0.00,,---,0.00,VWS V13.01,2013-05-31 23:05:00,
2013-05-31 16:10:00,87.1,47.0,16.48,WNW,303,3.0,11.0,25,0.00,,---,0.00,VWS V13.01,2013-05-31 23:10:00,
2013-05-31 16:15:00,87.1,47.0,16.48,North,350,4.0,11.0,25,0.00,,---,0.00,VWS V13.01,2013-05-31 23:15:00,
2013-05-31 16:20:00,87.2,46.0,16.48,NNW,348,1.0,11.0,24,0.00,,---,0.00,VWS V13.01,2013-05-31 23:20:00,
2013-05-31 16:25:00,87.2,47.1,16.48,NNW,347,3.0,11.0,25,0.00,,---,0.00,VWS V13.01,2013-05-31 23:25:00,
2013-05-31 16:30:00,87.3,46.1,16.48,NNW,330,4.0,11.0,24,0.00,,---,0.00,VWS V13.01,2013-05-31 23:30:00,
2013-05-31 16:35:00,87.3,47.2,16.48,WNW,299,4.0,11.0,25,0.00,,---,0.00,VWS V13.01,2013-05-31 23:35:00,
2013-05-31 16:40:00,87.2,46.0,16.48,WNW,303,2.0,11.0,24,0.00,,---,0.00,VWS V13.01,2013-05-31 23:40:00,
2013-05-31 16:45:00,87.1,47.0,16.48,NNW,333,4.0,11.0,25,0.00,,---,0.00,VWS V13.01,2013-05-31 23:45:00,
2013-05-31 16:50:00,86.6,46.6,16.48,NW,322,4.0,12.0,25,0.00,,---,0.00,VWS V13.01,2013-05-31 23:50:00,
2013-05-31 16:55:00,85.8,47.0,16.48,NNE,14,3.0,12.0,26,0.00,,---,0.00,VWS V13.01,2013-05-31 23:55:00,
2013-05-31 17:00:00,84.9,48.2,16.48,NW,307,5.0,13.0,28,0.00,,---,0.00,VWS V13.01,2013-06-01 00:00:00,
2013-05-31 17:05:00,83.5,47.0,16.48,NW,309,1.0,9.0,28,0.00,,---,0.00,VWS V13.01,2013-06-01 00:05:00,
2013-05-31 17:10:00,83.3,47.8,16.48,NNW,329,1.0,9.0,29,0.00,,---,0.00,VWS V13.01,2013-06-01 00:10:00,
2013-05-31 17:15:00,83.3,46.8,16.48,NW,309,0.0,11.0,28,0.00,,---,0.00,VWS V13.01,2013-06-01 00:15:00,
2013-05-31 17:20:00,83.4,46.9,16.48,NW,319,4.0,11.0,28,0.00,,---,0.00,VWS V13.01,2013-06-01 00:20:00,
2013-05-31 17:25:00,82.8,46.4,16.48,WNW,285,5.0,11.0,28,0.00,,---,0.00,VWS V13.01,2013-06-01 00:25:00,
2013-05-31 17:30:00,82.3,46.9,16.48,NW,316,7.0,11.0,29,0.00,,---,0.00,VWS V13.01,2013-06-01 00:30:00,
2013-05-31 17:35:00,81.9,46.6,16.48,NNW,338,0.0,11.0,29,0.00,,---,0.00,VWS V13.01,2013-06-01 00:35:00,
2013-05-31 17:40:00,81.5,48.0,16.48,WNW,292,0.0,11.0,31,0.00,,---,0.00,VWS V13.01,2013-06-01 00:40:00,
2013-05-31 17:45:00,81.5,48.0,16.48,North,9,4.0,11.0,31,0.00,,---,0.00,VWS V13.01,2013-06-01 00:45:00,
2013-05-31 17:50:00,81.0,48.4,16.48,North,350,2.0,11.0,32,0.00,,---,0.00,VWS V13.01,2013-06-01 00:50:00,
2013-05-31 17:55:00,80.5,48.0,16.48,WNW,282,5.0,11.0,32,0.00,,---,0.00,VWS V13.01,2013-06-01 00:55:00,
2013-05-31 18:00:00,80.2,47.7,16.48,NNW,341,2.0,11.0,32,0.00,,---,0.00,VWS V13.01,2013-06-01 01:00:00,
2013-05-31 18:05:00,79.5,47.9,16.48,NNW,344,11.0,12.0,33,0.00,,---,0.00,VWS V13.01,2013-06-01 01:05:00,
2013-05-31 18:10:00,79.2,47.7,16.48,NW,313,2.0,12.0,33,0.00,,---,0.00,VWS V13.01,2013-06-01 01:10:00,
2013-05-31 18:15:00,78.6,47.9,16.48,North,355,1.0,12.0,34,0.00,,---,0.00,VWS V13.01,2013-06-01 01:15:00,
2013-05-31 18:20:00,78.2,48.3,16.48,WNW,291,10.0,12.0,35,0.00,,---,0.00,VWS V13.01,2013-06-01 01:20:00,
2013-05-31 18:25:00,77.7,47.9,16.48,NW,323,4.0,17.0,35,0.00,,---,0.00,VWS V13.01,2013-06-01 01:25:00,
2013-05-31 18:30:00,77.4,48.4,30.67,West,275,9.0,17.0,36,0.00,,---,0.00,VWS V13.01,2013-06-01 01:30:00,
2013-05-31 18:35:00,77.5,48.5,30.67,NW,307,0.0,17.0,36,0.00,,---,0.00,VWS V13.01,2013-06-01 01:35:00,
2013-05-31 18:40:00,78.0,48.9,30.67,SW,230,0.0,17.0,36,0.00,,---,0.00,VWS V13.01,2013-06-01 01:40:00,
2013-05-31 18:45:00,78.3,48.4,30.67,West,262,3.0,17.0,35,0.00,,---,0.00,VWS V13.01,2013-06-01 01:45:00,
2013-05-31 18:50:00,77.6,47.8,30.67,SW,227,2.0,17.0,35,0.00,,---,0.00,VWS V13.01,2013-06-01 01:50:00,
2013-05-31 18:55:00,77.4,48.4,30.67,West,272,0.0,17.0,36,0.00,,---,0.00,VWS V13.01,2013-06-01 01:55:00,
2013-05-31 19:00:00,77.3,48.3,30.67,WNW,292,0.0,17.0,36,0.00,,---,0.00,VWS V13.01,2013-06-01 02:00:00,
2013-05-31 19:05:00,77.4,48.4,30.67,SW,226,0.0,4.0,36,0.00,,---,0.00,VWS V13.01,2013-06-01 02:05:00,
2013-05-31 19:10:00,77.5,48.5,30.67,West,267,3.0,6.0,36,0.00,,---,0.00,VWS V13.01,2013-06-01 02:10:00,
2013-05-31 19:15:00,76.2,48.0,30.67,West,271,4.0,10.0,37,0.00,,---,0.00,VWS V13.01,2013-06-01 02:15:00,
2013-05-31 19:20:00,74.7,48.1,30.67,West,276,1.0,10.0,39,0.00,,---,0.00,VWS V13.01,2013-06-01 02:20:00,
2013-05-31 19:25:00,74.2,48.3,30.67,WNW,284,7.0,10.0,40,0.00,,---,0.00,VWS V13.01,2013-06-01 02:25:00,
2013-05-31 19:30:00,73.8,48.7,30.67,WNW,284,3.0,10.0,41,0.00,,---,0.00,VWS V13.01,2013-06-01 02:30:00,
2013-05-31 19:35:00,73.5,48.4,30.67,West,264,6.0,10.0,41,0.00,,---,0.00,VWS V13.01,2013-06-01 02:35:00,
2013-05-31 19:40:00,73.0,48.6,30.67,WNW,289,1.0,10.0,42,0.00,,---,0.00,VWS V13.01,2013-06-01 02:40:00,
2013-05-31 19:45:00,72.7,48.9,30.67,WSW,258,6.0,10.0,43,0.00,,---,0.00,VWS V13.01,2013-06-01 02:45:00,
2013-05-31 19:50:00,72.6,48.8,30.67,West,275,0.0,10.0,43,0.00,,---,0.00,VWS V13.01,2013-06-01 02:50:00,
2013-05-31 19:55:00,72.2,48.5,30.67,WNW,284,0.0,10.0,43,0.00,,---,0.00,VWS V13.01,2013-06-01 02:55:00,
2013-05-31 19:58:00,67.7,48.4,30.67,WSW,240,0.0,13.0,50,0.00,,---,0.00,VWS V13.01,2013-06-01 02:58:00,
2013-05-31 19:59:00,67.7,48.4,30.67,WSW,240,0.0,13.0,50,0.00,,---,0.00,VWS V13.01,2013-06-01 02:59:00,
2013-05-31 20:00:00,71.8,48.7,30.67,West,272,0.0,10.0,44,0.00,,---,0.00,VWS V13.01,2013-06-01 03:00:00,
2013-05-31 20:01:00,67.6,48.3,30.67,WSW,240,0.0,1.0,50,0.00,,---,0.00,VWS V13.01,2013-06-01 03:01:00,
2013-05-31 20:02:00,67.6,48.8,30.67,WSW,240,0.0,1.0,51,0.00,,---,0.00,VWS V13.01,2013-06-01 03:02:00,
2013-05-31 20:05:00,71.2,48.2,30.67,WNW,288,0.0,6.0,44,0.00,,---,0.00,VWS V13.01,2013-06-01 03:05:00,
2013-05-31 20:10:00,70.8,48.4,30.67,SW,218,0.0,6.0,45,0.00,,---,0.00,VWS V13.01,2013-06-01 03:10:00,
2013-05-31 20:15:00,70.4,48.1,30.67,SW,226,0.0,7.0,45,0.00,,---,0.00,VWS V13.01,2013-06-01 03:15:00,
2013-05-31 20:20:00,69.9,48.2,30.67,SW,221,0.0,7.0,46,0.00,,---,0.00,VWS V13.01,2013-06-01 03:20:00,
2013-05-31 20:25:00,69.5,47.8,30.67,WNW,298,2.0,7.0,46,0.00,,---,0.00,VWS V13.01,2013-06-01 03:25:00,
2013-05-31 20:30:00,69.1,48.0,30.67,West,266,4.0,13.0,47,0.00,,---,0.00,VWS V13.01,2013-06-01 03:30:00,
2013-05-31 20:35:00,68.8,48.3,30.67,WSW,242,7.0,13.0,48,0.00,,---,0.00,VWS V13.01,2013-06-01 03:35:00,
2013-05-31 20:40:00,68.5,48.1,30.67,WNW,299,0.0,13.0,48,0.00,,---,0.00,VWS V13.01,2013-06-01 03:40:00,
2013-05-31 20:45:00,68.3,47.9,30.67,SW,224,1.0,13.0,48,0.00,,---,0.00,VWS V13.01,2013-06-01 03:45:00,
2013-05-31 20:50:00,68.2,47.8,30.67,West,263,1.0,13.0,48,0.00,,---,0.00,VWS V13.01,2013-06-01 03:50:00,
2013-05-31 20:55:00,68.0,48.2,30.67,WSW,254,0.0,13.0,49,0.00,,---,0.00,VWS V13.01,2013-06-01 03:55:00,
2013-05-31 21:00:00,67.7,48.4,30.67,WSW,240,0.0,13.0,50,0.00,,---,0.00,VWS V13.01,2013-06-01 04:00:00,
2013-05-31 21:04:00,67.6,48.8,30.67,WSW,240,0.0,1.0,51,0.00,,---,0.00,VWS V13.01,2013-06-01 04:04:00,
2013-05-31 21:09:00,67.5,49.3,30.67,WSW,240,0.0,1.0,52,0.00,,---,0.00,VWS V13.01,2013-06-01 04:09:00,
2013-05-31 21:14:00,67.2,49.0,30.67,WSW,240,0.0,1.0,52,0.00,,---,0.00,VWS V13.01,2013-06-01 04:14:00,
2013-05-31 21:19:00,67.0,48.8,30.67,SW,232,0.0,1.0,52,0.00,,---,0.00,VWS V13.01,2013-06-01 04:19:00,
2013-05-31 21:24:00,66.7,48.5,30.67,WSW,240,0.0,2.0,52,0.00,,---,0.00,VWS V13.01,2013-06-01 04:24:00,
2013-05-31 21:29:00,66.3,48.7,30.67,NW,320,0.0,2.0,53,0.00,,---,0.00,VWS V13.01,2013-06-01 04:29:00,
2013-05-31 21:34:00,66.0,48.9,30.67,NW,320,0.0,2.0,54,0.00,,---,0.00,VWS V13.01,2013-06-01 04:34:00,
2013-05-31 21:39:00,65.8,48.7,30.67,NW,319,0.0,2.0,54,0.00,,---,0.00,VWS V13.01,2013-06-01 04:39:00,
2013-05-31 21:44:00,65.3,48.2,30.67,NW,319,0.0,2.0,54,0.00,,---,0.00,VWS V13.01,2013-06-01 04:44:00,
2013-05-31 21:49:00,65.0,48.5,30.67,NW,320,0.0,2.0,55,0.00,,---,0.00,VWS V13.01,2013-06-01 04:49:00,
2013-05-31 21:54:00,64.9,48.8,30.67,NW,319,0.0,2.0,56,0.00,,---,0.00,VWS V13.01,2013-06-01 04:54:00,
2013-05-31 21:59:00,64.8,48.3,29.54,NW,319,0.0,2.0,55,0.00,,---,0.00,VWS V13.01,2013-06-01 04:59:00,
2013-05-31 22:04:00,64.5,48.5,29.54,NW,325,0.0,0.0,56,0.00,,---,0.00,VWS V13.01,2013-06-01 05:04:00,
2013-05-31 22:09:00,64.3,48.3,29.54,NW,325,0.0,1.0,56,0.00,,---,0.00,VWS V13.01,2013-06-01 05:09:00,
2013-05-31 22:14:00,64.2,48.7,29.54,WNW,288,0.0,1.0,57,0.00,,---,0.00,VWS V13.01,2013-06-01 05:14:00,
2013-05-31 22:19:00,64.1,48.6,29.54,WNW,289,0.0,1.0,57,0.00,,---,0.00,VWS V13.01,2013-06-01 05:19:00,
2013-05-31 22:24:00,64.2,48.7,29.54,West,271,0.0,2.0,57,0.00,,---,0.00,VWS V13.01,2013-06-01 05:24:00,
2013-05-31 22:29:00,64.1,48.6,29.54,West,271,0.0,2.0,57,0.00,,---,0.00,VWS V13.01,2013-06-01 05:29:00,
2013-05-31 22:34:00,64.1,48.6,29.54,West,271,0.0,2.0,57,0.00,,---,0.00,VWS V13.01,2013-06-01 05:34:00,
2013-05-31 22:39:00,63.9,48.4,29.54,West,271,0.0,2.0,57,0.00,,---,0.00,VWS V13.01,2013-06-01 05:39:00,
2013-05-31 22:43:00,63.7,48.7,29.54,West,271,0.0,2.0,58,0.00,,---,0.00,VWS V13.01,2013-06-01 05:43:00,
2013-05-31 22:48:00,63.4,48.8,29.54,West,271,0.0,2.0,59,0.00,,---,0.00,VWS V13.01,2013-06-01 05:48:00,
2013-05-31 22:53:00,63.2,48.2,29.54,West,277,3.0,4.0,58,0.00,,---,0.00,VWS V13.01,2013-06-01 05:53:00,
2013-05-31 22:58:00,63.0,48.0,29.54,West,281,0.0,4.0,58,0.00,,---,0.00,VWS V13.01,2013-06-01 05:58:00,
2013-05-31 23:03:00,62.9,48.4,29.54,West,280,0.0,0.0,59,0.00,,---,0.00,VWS V13.01,2013-06-01 06:03:00,
2013-05-31 23:08:00,62.8,48.3,29.54,West,280,0.0,0.0,59,0.00,,---,0.00,VWS V13.01,2013-06-01 06:08:00,
2013-05-31 23:13:00,62.6,48.5,29.54,West,281,0.0,0.0,60,0.00,,---,0.00,VWS V13.01,2013-06-01 06:13:00,
2013-05-31 23:18:00,62.4,48.3,29.54,West,281,0.0,1.0,60,0.00,,---,0.00,VWS V13.01,2013-06-01 06:18:00,
2013-05-31 23:23:00,62.1,48.1,29.54,West,280,0.0,1.0,60,0.00,,---,0.00,VWS V13.01,2013-06-01 06:23:00,
2013-05-31 23:28:00,61.7,47.7,29.54,West,280,0.0,2.0,60,0.00,,---,0.00,VWS V13.01,2013-06-01 06:28:00,
2013-05-31 23:33:00,61.3,47.8,29.54,West,281,0.0,2.0,61,0.00,,---,0.00,VWS V13.01,2013-06-01 06:33:00,
2013-05-31 23:38:00,61.1,48.0,29.54,West,280,0.0,2.0,62,0.00,,---,0.00,VWS V13.01,2013-06-01 06:38:00,
2013-05-31 23:43:00,61.0,47.5,29.54,WSW,241,0.0,3.0,61,0.00,,---,0.00,VWS V13.01,2013-06-01 06:43:00,
2013-05-31 23:48:00,60.9,47.8,29.54,WSW,241,0.0,3.0,62,0.00,,---,0.00,VWS V13.01,2013-06-01 06:48:00,
2013-05-31 23:53:00,60.7,47.6,29.54,WSW,242,0.0,3.0,62,0.00,,---,0.00,VWS V13.01,2013-06-01 06:53:00,
2013-05-31 23:58:00,60.6,47.5,29.54,WSW,242,0.0,3.0,62,0.00,,---,0.00,VWS V13.01,2013-06-01 06:58:00,